Location: Bellflower
(33.8817°N, 118.1170°W)
Time: 23:33:05
(UTC+00:00)

Cosmos 1184 Rocket - Pass Details

Date: 23 November 2020
Orbit: 404 x 418 km, 81.2° (Epoch: 20 January)

Event Time Altitude Azimuth Distance (km) Brightness Sun altitude
Rises 13:29:21 0° 195° (SSW) 2,352 6.6 -13.2°
Reaches altitude 10° 13:31:24 10° 199° (SSW) 1,494 5.5 -12.8°
Maximum altitude 13:34:36 56° 279° (W) 503 2.8 -12.1°
Drops below altitude 10° 13:37:50 10° 359° (N) 1,508 5.4 -11.5°
Sets 13:39:55 0° 4° (N) 2,377 6.4 -11.1°
